Regional Weather Roundup
Issued by NWS

Home | Current Version | Previous Version | Text Only | Print | Product List | Glossary Off
Versions: 1 2 3 4 5 6 7 8 9 10 11 12 13 14 15 16 17 18 19 20 21 22 23 24 25 26 27 28 29 30 31 32 33 34 35 36 37 38 39 40 41 42 43 44 45 46 47 48 49 50

095
ASUS44 KLIX 182110
RWRLA
LOUISIANA WEATHER ROUNDUP
NATIONAL WEATHER SERVICE NEW ORLEANS LA
300 PM CST THU DEC 18 2014

NOTE: "FAIR" INDICATES FEW OR NO CLOUDS BELOW 12,000 FEET WITH NO
      SIGNIFICANT WEATHER AND/OR OBSTRUCTIONS TO VISIBILITY.
      SKY/WX - SKY CONDITION AND SIGNIFICANT WEATHER.
      TMP - AIR TEMPERATURE.    DP   - DEWPOINT TEMPERATURE.
      RH  - RELATIVE HUMIDITY.  PRES - PRESSURE.
      HX  - HEAT INDEX.         WCI  - WIND CHILL INDEX.

*  THESE STATIONS ARE NOT NWS OR FAA STATIONS AND ARE NOT UNDER
   NWS QUALITY CONTROL.

LAZ040-048-061>063-065-066-069-182200-
SOUTHEAST LOUISIANA

CITY           SKY/WX    TMP DP  RH WIND       PRES   REMARKS
N.O. AUDUBON     N/A     67  55  65 MISG        N/A
N.O. INTL ARPT CLOUDY    68  54  60 SE7       30.09S
N.O. LAKEFRONT CLOUDY    65  54  67 E6        30.10S
N.O. DOWNTOWN* CLOUDY    66  54  63 S9        30.10S
SLIDELL        CLOUDY    63  51  65 SE7       30.10S
BATON ROUGE    CLOUDY    62  53  72 N6        30.09S
BOOTHVILLE     MOSUNNY   69  56  62 E8        30.10F
BELLE CHASSE   CLOUDY    65  55  70 SE7       30.09S
BOGALUSA*        N/A     68  50  52 CALM      30.11R
GALLIANO*      MOCLDY    69  57  64 MISG      30.10S
NEW ROADS*     LGT RAIN  55  53  94 NE9       30.10F
GONZALES*      MOCLDY    68  57  68 CALM      30.07F
HAMMOND*       NOT AVBL
HOUMA*         PTSUNNY   66  57  72 SE12      30.09S
PORT FOURCHON* CLEAR     66  59  77 SE13      30.11F

$$

LAZ041-044-053-054-182200-
SOUTHWEST LOUISIANA

CITY           SKY/WX    TMP DP  RH WIND       PRES   REMARKS
LAKE CHARLES   CLOUDY    63  55  75 NE10      30.05S
LAFAYETTE      CLOUDY    63  57  81 NE5       30.08S
PATTERSON      CLOUDY    63  61  94 SE7       30.07F
SALT POINT       N/A     65  60  84 SE7       30.06F
NEW IBERIA     CLOUDY    67  60  78 SE7       30.07F
CHENAULT AIRPK CLOUDY    61  54  77 N7        30.06F

$$

LAZ027-028-182200-
CENTRAL LOUISIANA

CITY           SKY/WX    TMP DP  RH WIND       PRES   REMARKS
FORT POLK      CLOUDY    55  53  92 NE3       30.08S
ALEXANDRIA INT CLOUDY    53  50  89 E3        30.10S
ALEXANDRIA     CLOUDY    53  49  86 CALM      30.11S

$$

LAZ001-002-182200-
NORTHWEST LOUISIANA

CITY           SKY/WX    TMP DP  RH WIND       PRES   REMARKS
SHREVEPORT     CLOUDY    52  46  80 NE3       30.11F
BARKSDALE AFB  NOT AVBL
DTN SHREVEPORT CLOUDY    50  44  80 E3        30.12F

$$

LAZ014-016-182200-
NORTHEAST LOUISIANA

CITY           SKY/WX    TMP DP  RH WIND       PRES   REMARKS
MONROE         CLOUDY    54  46  74 NE5       30.14F
TALLULAH       CLOUDY    54  44  69 SE6       30.14S

$$




USA.gov is the U.S. government's official web portal to all federal, state and local government web resources and services.